Total_Precipitation_Accumulation
3.58 3.60 3.55 3.75 3.67 3.84 4.26 4.83 4.66 4.80 4.65 4.17 3.67 3.56 3.72 3.62 3.52 3.38 2.94 2.78 2.98 3.09 3.27 3.38 3.40 3.39 3.42 3.32 3.08 2.87 2.65 2.45 2.16 1.88 1.63 1.58 1.73 1.74 1.65 1.54 1.48 1.44 1.39
3.31 3.29 3.33 3.68 3.66 3.54 3.71 4.16 4.30 4.75 4.68 4.24 3.61 3.31 3.41 3.53 3.36 3.20 2.98 2.90 2.96 2.81 2.95 3.41 3.79 4.00 3.93 3.78 3.59 3.31 2.98 2.76 2.47 2.06 1.81 1.67 1.53 1.56 1.64 1.58 1.52 1.48 1.34
3.03 3.05 3.20 3.26 3.28 3.17 3.32 3.49 3.69 3.99 3.90 3.71 3.60 3.35 3.25 3.21 2.97 3.00 3.03 2.89 2.57 2.75 2.92 3.20 3.55 3.86 4.13 4.34 4.27 3.96 3.59 3.13 2.70 2.31 2.00 1.76 1.56 1.43 1.41 1.45 1.50 1.46 1.29
2.55 2.76 2.81 2.74 2.75 2.60 2.77 3.20 3.23 3.44 3.63 3.62 3.79 3.49 3.20 3.28 3.03 2.96 2.94 2.97 2.97 2.61 2.97 3.14 3.30 3.50 3.92 4.36 4.63 4.69 4.25 3.60 3.01 2.62 2.25 1.92 1.70 1.49 1.32 1.28 1.36 1.40 1.27
2.52 2.72 2.89 2.84 2.41 2.41 2.57 2.39 2.86 3.12 3.31 3.33 2.89 3.01 2.72 2.79 2.76 2.49 2.60 2.54 2.79 2.83 3.02 2.99 3.21 3.24 3.64 4.49 5.12 5.39 5.20 4.42 3.64 3.16 2.85 2.45 2.17 1.85 1.56 1.39 1.31 1.28 1.20
2.49 2.84 2.68 2.46 2.22 2.60 2.90 2.95 3.30 3.22 3.04 3.05 2.52 2.62 2.43 2.28 2.36 2.29 2.20 2.29 2.40 2.34 2.72 2.93 3.06 2.72 3.07 4.00 4.75 5.15 5.46 5.37 4.67 3.95 3.55 3.26 3.01 2.55 2.02 1.69 1.50 1.42 1.34
2.55 2.97 2.69 2.99 2.66 2.73 2.90 2.88 3.10 3.06 2.74 2.69 3.11 3.11 2.52 2.05 2.10 1.99 1.97 2.20 2.17 2.28 2.69 2.99 3.17 3.14 2.93 2.81 3.06 3.77 4.67 5.43 5.53 4.88 4.32 3.99 3.75 3.16 2.43 2.10 1.91 1.73 1.63
2.51 2.60 3.01 2.76 2.82 2.99 2.97 2.99 3.15 3.16 2.85 2.83 3.30 3.65 3.23 3.12 2.67 1.86 1.93 2.13 2.20 2.40 2.44 2.45 2.78 3.23 3.12 3.21 2.47 2.35 3.31 4.20 5.17 5.36 4.92 4.39 4.08 3.54 2.86 2.47 2.18 1.96 1.85
2.21 2.43 2.62 2.64 2.88 2.66 3.01 3.22 3.18 3.30 3.34 3.15 3.18 3.66 3.67 3.54 2.97 2.34 1.89 1.91 2.19 2.60 2.55 2.57 2.42 2.77 3.09 3.42 3.27 2.62 2.61 2.81 3.80 4.94 5.25 4.70 4.02 3.52 3.15 2.98 2.72 2.34 2.12
2.17 2.26 2.38 2.72 2.91 2.63 3.21 2.78 2.91 3.19 3.39 3.21 3.17 3.03 3.16 3.42 3.45 3.15 2.55 2.02 2.04 2.35 2.55 2.34 2.35 2.74 3.05 3.16 3.24 2.56 2.15 2.07 2.69 3.86 4.71 4.82 4.33 3.70 3.27 3.23 3.42 3.30 2.88
2.17 2.05 2.33 2.63 2.77 2.66 2.84 2.91 3.21 3.06 3.02 3.04 3.12 3.19 3.36 3.33 3.04 3.16 3.12 2.78 2.43 1.93 1.84 2.06 2.33 2.50 2.73 3.09 3.40 2.75 2.20 2.06 2.14 2.56 3.18 3.81 4.06 3.88 3.60 3.66 4.08 4.32 4.05
2.22 2.12 2.32 2.63 2.60 2.67 2.87 2.84 3.00 2.99 3.06 3.14 2.97 2.90 3.18 3.21 3.11 3.20 2.89 2.67 2.57 1.90 1.62 1.70 1.93 2.31 2.52 2.80 2.88 2.45 2.32 2.50 2.41 2.36 2.35 2.56 3.02 3.34 3.50 3.72 4.12 4.60 4.81
2.21 2.28 2.44 2.72 2.63 2.71 2.82 3.07 3.15 3.08 3.06 3.08 2.91 2.76 2.74 2.65 2.79 3.00 3.15 2.73 2.44 1.92 1.92 1.72 1.83 2.12 2.20 2.70 3.07 2.96 2.53 2.62 2.43 2.36 2.34 2.26 2.42 2.64 2.83 3.11 3.47 3.92 4.38
2.21 2.15 2.34 2.40 2.38 2.47 2.53 3.08 2.90 2.87 2.99 2.91 2.64 2.93 2.79 2.40 2.51 2.72 3.07 3.32 2.99 2.53 2.50 2.28 2.10 2.21 2.38 2.75 3.06 3.13 2.57 2.51 2.22 2.08 2.02 1.95 1.96 2.04 2.19 2.38 2.53 2.69 2.95
2.19 2.16 2.19 2.28 2.36 2.51 2.66 2.86 2.74 2.83 3.05 2.90 2.81 2.97 2.72 2.44 2.41 2.38 2.77 3.26 3.63 3.36 2.91 2.62 2.42 2.33 2.44 2.64 2.96 2.69 2.73 2.71 2.38 2.09 1.84 1.78 1.75 1.71 1.72 1.81 1.96 2.02 2.06
2.02 2.10 2.20 2.24 2.33 2.44 2.71 2.89 2.83 2.93 3.01 2.87 2.89 2.98 2.83 2.56 2.63 2.49 2.58 2.98 3.31 3.51 3.15 2.39 2.38 2.28 2.43 2.35 2.77 2.56 2.75 2.75 2.34 2.08 1.84 1.73 1.66 1.60 1.58 1.61 1.67 1.77 1.85
2.12 2.11 2.22 2.28 2.29 2.30 2.51 2.72 2.61 2.85 2.99 3.03 2.82 2.80 2.78 2.84 2.88 2.72 2.84 2.92 3.03 3.42 3.41 2.69 2.52 2.58 2.72 2.75 2.79 2.65 2.51 2.52 2.29 2.21 1.92 1.75 1.63 1.57 1.54 1.50 1.51 1.51 1.56
2.25 2.25 2.34 2.44 2.36 2.35 2.53 2.54 2.38 2.48 2.70 2.92 3.15 3.30 3.06 3.09 3.12 3.00 3.01 2.98 3.05 3.35 3.39 3.12 2.86 2.81 2.88 2.84 2.88 2.69 2.26 2.15 2.23 2.39 2.13 1.85 1.69 1.58 1.53 1.46 1.43 1.40 1.41
2.50 2.51 2.59 2.52 2.54 2.60 2.59 2.47 2.48 2.52 2.59 2.66 2.94 3.22 3.25 3.47 3.20 3.22 3.16 3.03 3.05 3.08 3.29 3.10 2.85 3.01 3.00 2.95 2.91 2.54 2.34 2.41 2.20 2.47 2.41 2.01 1.77 1.66 1.55 1.44 1.33 1.28 1.27
2.74 2.72 2.73 2.66 2.61 2.66 2.69 2.67 2.67 2.61 2.64 2.59 2.67 2.81 2.96 3.26 3.25 3.36 3.19 3.18 3.30 3.38 3.51 3.34 3.12 3.19 3.30 3.30 3.19 2.82 2.69 2.57 2.41 2.19 2.32 2.10 1.94 1.84 1.70 1.57 1.46 1.33 1.31
2.77 2.95 2.94 2.85 2.85 2.82 2.60 2.76 2.99 2.94 2.98 2.74 2.64 2.62 2.62 2.88 2.98 3.08 2.79 2.99 3.35 3.42 3.47 3.39 3.25 3.26 3.25 3.42 3.14 2.98 2.85 2.84 2.72 2.42 2.31 2.03 1.93 1.78 1.73 1.76 1.68 1.54 1.43
3.22 3.16 3.06 3.10 3.05 2.76 2.89 2.98 2.91 2.95 3.14 3.09 2.92 2.86 2.72 2.66 2.68 2.73 2.73 2.83 3.01 3.02 3.09 3.23 3.15 3.12 3.15 3.30 3.48 3.36 3.20 3.06 2.80 2.48 2.54 2.20 2.04 1.95 1.78 1.65 1.80 1.74 1.57
3.29 3.19 3.17 3.21 3.11 3.13 3.09 2.85 2.72 2.73 2.83 2.92 2.96 2.92 2.58 2.41 2.67 2.56 2.71 2.73 2.55 2.49 2.53 2.70 2.71 2.71 3.19 3.52 3.87 3.52 3.35 3.18 2.88 2.72 2.76 2.38 2.17 2.07 1.87 1.80 1.96 1.72 1.53
3.30 3.27 3.21 3.11 3.04 2.92 2.99 2.74 2.73 2.59 2.54 2.52 2.66 2.77 2.69 2.56 2.59 2.73 2.63 2.35 2.12 2.10 2.17 2.09 2.08 2.34 2.82 3.46 3.82 3.79 3.82 3.56 3.19 2.78 2.66 2.39 2.16 2.02 1.83 1.84 2.07 1.94 1.73
3.19 3.04 2.93 2.92 2.89 2.95 3.21 2.91 2.78 2.52 2.50 2.36 2.41 2.44 2.44 2.29 2.46 2.62 2.48 2.22 2.01 1.89 1.96 1.98 1.94 2.17 2.45 2.83 3.28 3.54 3.47 3.35 2.92 2.51 2.44 2.34 2.16 2.18 2.10 1.96 1.95 2.09 1.91
3.44 3.40 3.26 3.21 3.13 3.09 3.32 3.04 2.86 2.56 2.52 2.46 2.52 2.52 2.57 2.29 2.24 2.21 2.08 2.08 1.89 1.78 1.93 1.91 1.85 1.87 1.99 2.32 2.82 2.91 3.00 3.17 2.88 2.54 2.25 2.31 2.20 2.39 2.32 2.03 1.93 1.92 1.84